Back to catalog

EKRAN 12

AliveCommunicationsGEO
NORAD 14821·PAYLOAD·🇷🇺 Russia

Launched Mar 16, 1984 from Baikonur Cosmodrome

Loading…

TLE

FreshSource: Space-Track

Epoch: Sep 14, 2026, 11:14 UTC

1 14821U 84028A   26257.46872397 -.00000103  00000-0  00000-0 0  9991
2 14821  10.1290 312.1547 0005684 178.6762 247.9748  0.96062320134887

Track EKRAN 12 in real time with AllMySat

Download on the App Store